COSMOS 2251 DEB, 34064

Orbit data source: Space-Track

COSMOS 2251 DEB, 34064 is space debris in LEO originally from a launch on Wed, 16 Jun 1993 UTC launched from the Plesetsk Missile And Space Complex (PKMTR). The debris from Iridium 33, an American commercial communications satellite, has been tracked extensively since its accidental collision with the defunct Russian satellite Cosmos 2251 in 2009. This event, occurring at high speed in low Earth orbit (LEO), generated thousands of pieces of space debris, significantly increasing the risk of further collisions. The Iridium 33 debris cloud has impacted space traffic management and orbital debris mitigation strategies, making it a subject of ongoing study in space situational awareness.

Loading next visibility...
Identifier
34064, 1993-036KB
Orbit
LEO
Country
Flag of CISCIS
Related business
Manufacturer
Unknown
Mission
Spacecraft
Bus & Motor
Unknown
Mass
Unknown
Launch date (UTC)
1993-06-16 (33 years ago)
Launch vehicle
Unknown
Launch site
Plesetsk Missile And Space Complex (PKMTR)
Object type
Payload
Rocket body
Debris
Shape & HBR
Unknown shape, 0.1 m
Radar Cross Section
Small (<0.1 m²)

Expand to show TLE details & history
Last TLE update: 18 hours ago

TLE from 18 hours ago
0 COSMOS 2251 DEB
1 34064U 93036KB  26123.76578638  .00001173  00000-0  35846-3 0  9993
2 34064  74.0339   7.2694 0021009  44.2339  17.8972 14.42848149901908
Epoch: 2026-05-03T18:22Z
TLE epoch observation values (Epoch: 2026-05-03T18:22:43.943Z)
Latitude
58.3735°
Longitude
-102.55625°
Altitude
744.358 km
Speed
7.496 km/s
True Right ascension
02h 19m 09s
True Declination
58° 13' 10"
Sunlit
Object was in daylight at epoch
Visualization orbit readout
Latitude
Unknown
Longitude
Unknown
Altitude
Unknown
Speed
Unknown
Apparent Right ascension
Unknown
Apparent Declination
Unknown
Sunlit
N/A
Visualization observer readout
Local Sidereal Time
19:52:08
Azimuth
Unknown
Elevation
Unknown
Doppler factor
Unknown
Orbital elements
Apogee altitude
761.689 km
Perigee altitude
731.752 km
Semi-major axis
7,124.857 km
Eccentricity
0.0021
Inclination
74.0339°
RAAN
7.2694°
Arg. of periapsis
44.2339°
True anomaly
17.97137°
Mean anomaly
17.8972°
Eccentric anomaly
17.93427°
Mean motion
3.60893 °/min
Orbital period
99.75 mins
BSTAR
0.00035846
Loading maneuver chart data...
Computing Atmospheric mass density...

Documentation

Showing up to 5 results
|